User: anonymous   Login
Location: Bothwell
(42.3833°S, 147.0000°E)
Time: 06:30:47
(UTC+10:00)
Language:

AIST 2D - Orbit

View from above orbital plane
View from above orbital plane
View from above satellite
View from above satellite

Ground track
Ground track

The orbit data is extracted from the following two-line orbital elements,

1 41465U 16026B   22267.63589347  .00012867  00000-0  28790-3 0  9992
2 41465  97.0403 140.7090 0010758 123.5085 294.3341 15.43535842358823
Epoch (UTC): 24 September 2022 15:15:41
Eccentricity: 0.0010758
inclination: 97.0403°
perigee height: 428 km
apogee height: 443 km
right ascension of ascending node: 140.7090°
argument of perigee: 123.5085°
revolutions per day: 15.43535842
mean anomaly at epoch: 294.3341°
orbit number at epoch: 35882

The dashed part of the orbit path shows where the satellite is in the earth's shadow,  

DLR